GPS BIIR-10 (PRN 22)

Last updated on Sept. 23, 2020, 5:43 a.m. UTC

1 28129U 03058A   20266.85618516 -.00000010  00000-0  00000-0 0  9996
2 28129  53.3990 107.8135 0069408 296.7123  62.6470  2.00556749122801
UTC
Height (km)
Latitude
Longitude
Inclination
Orbital Period
UTC large
Height (km)
Speed (km/s)
/
Latitude / Longitude
Inclination (degrees)
Orbital Period (minutes)
Azimuth
Elevation
Range (km)
Doppler Factor
iOS Compass Heading
iOS Angle

Next 30 passes for location: Hong Kong

Rise time Rise Azimuth (degrees) Set time Set Azimuth (degrees) Duration Max altitude (degrees)

No matching passes for this satellites